BON967 VHHH-KLAX

Flight info

Callsign BON967
Flight time N/A
Altitude 31000
Route DALOL V631 ENVAR M750 LEKOS/N0489F330 M750 MUKEP Y891 OVSUN/N0486F320 Y893 IGMIS/N0484F330 Y57 PUTER/N0481F340 A590 PUGAL/N0476F350 A590 POWAL R451 ADK DCT 51N171W 50N158W/N0477F370 48N147W DCT 46N40 DCT 42N30/N0473F390 DCT FATMO DCT KL30E DCT SNAXX RYDRR2
Aircraft B77L/H-SDE1E2E3FGHIJ2J3J4J5M1RWXYZ/LB1D1

Departure

Time N/A
Airport Hong Kong International Airport (VHHH)

Arrival

Time 2026-05-04 10:10
Airport Los Angeles International Airport (KLAX)
Time Latitude Longitude Altitude Speed Heading
2026-05-04 08:19 42.19575 -130.41663 39062 ft 451 kts 116°
2026-05-04 08:19 42.17904 -130.38086 39063 ft 451 kts 116°
2026-05-04 08:20 42.14562 -130.30941 39067 ft 451 kts 117°
2026-05-04 08:20 42.11226 -130.23827 39064 ft 452 kts 117°
2026-05-04 08:21 42.07868 -130.16677 39067 ft 452 kts 117°
2026-05-04 08:21 42.04500 -130.09527 39057 ft 453 kts 117°
2026-05-04 08:22 42.00991 -130.02479 39055 ft 457 kts 123°
2026-05-04 08:24 41.83890 -129.82614 39057 ft 467 kts 136°
2026-05-04 08:24 41.81413 -129.79973 39055 ft 467 kts 136°
2026-05-04 08:24 41.76348 -129.74553 39054 ft 467 kts 136°
2026-05-04 08:25 41.71270 -129.69112 39056 ft 467 kts 136°
2026-05-04 08:25 41.66196 -129.63686 39055 ft 467 kts 136°
2026-05-04 08:27 41.45845 -129.42051 39056 ft 470 kts 136°
2026-05-04 08:28 41.40717 -129.36627 39055 ft 471 kts 136°
2026-05-04 08:28 41.35569 -129.31195 39057 ft 471 kts 136°
2026-05-04 08:29 41.30427 -129.25779 39054 ft 472 kts 137°
2026-05-04 08:31 41.09759 -129.04120 39051 ft 475 kts 137°
2026-05-04 08:33 40.88948 -128.82496 39047 ft 476 kts 137°
2026-05-04 08:35 40.68045 -128.60953 39058 ft 477 kts 138°
2026-05-04 08:35 40.62803 -128.55578 39066 ft 478 kts 138°
2026-05-04 08:37 40.44388 -128.36774 39043 ft 480 kts 139°
2026-05-04 08:38 40.39103 -128.31406 39045 ft 480 kts 139°
2026-05-04 08:38 40.33851 -128.26086 39047 ft 480 kts 139°
2026-05-04 08:40 40.12637 -128.04681 39036 ft 482 kts 139°
2026-05-04 08:41 40.07317 -127.99340 39035 ft 482 kts 139°
2026-05-04 08:41 40.02002 -127.94019 39038 ft 482 kts 140°
2026-05-04 08:42 39.96672 -127.88692 39037 ft 482 kts 140°
2026-05-04 08:42 39.91347 -127.83382 39034 ft 482 kts 140°
2026-05-04 08:43 39.86014 -127.78076 39038 ft 482 kts 140°
2026-05-04 08:43 39.80689 -127.72789 39037 ft 481 kts 140°
2026-05-04 08:44 39.75374 -127.67515 39036 ft 481 kts 140°
2026-05-04 08:46 39.54076 -127.46495 39039 ft 481 kts 141°
2026-05-04 08:46 39.48742 -127.41260 39035 ft 481 kts 141°
2026-05-04 08:47 39.43408 -127.36027 39037 ft 481 kts 141°
2026-05-04 08:47 39.38071 -127.30805 39035 ft 480 kts 141°
2026-05-04 08:48 39.32738 -127.25605 39040 ft 480 kts 141°
2026-05-04 08:48 39.27408 -127.20413 39036 ft 480 kts 141°
2026-05-04 08:49 39.22076 -127.15228 39039 ft 480 kts 141°
2026-05-04 08:50 39.03749 -126.96698 39042 ft 477 kts 133°
2026-05-04 08:51 38.99172 -126.90547 39042 ft 477 kts 132°
2026-05-04 08:51 38.94590 -126.84376 39035 ft 477 kts 133°
2026-05-04 08:52 38.89980 -126.78229 39039 ft 477 kts 133°
2026-05-04 08:52 38.85358 -126.72110 39036 ft 478 kts 133°
2026-05-04 08:54 38.66783 -126.47644 39038 ft 480 kts 134°
2026-05-04 08:55 38.62122 -126.41536 39037 ft 480 kts 134°
2026-05-04 08:55 38.57480 -126.35466 39037 ft 480 kts 134°
2026-05-04 09:01 38.08968 -125.72709 39036 ft 482 kts 135°
2026-05-04 09:01 38.04251 -125.66672 39037 ft 481 kts 135°
2026-05-04 09:02 37.99526 -125.60640 39039 ft 481 kts 135°
2026-05-04 09:02 37.94807 -125.54627 39034 ft 482 kts 136°
2026-05-04 09:03 37.90076 -125.48609 39039 ft 482 kts 136°
2026-05-04 09:03 37.85340 -125.42597 39037 ft 482 kts 136°
2026-05-04 09:04 37.80599 -125.36591 39038 ft 483 kts 136°
2026-05-04 09:04 37.75841 -125.30572 39037 ft 483 kts 137°
2026-05-04 09:05 37.71087 -125.24572 39037 ft 484 kts 137°
2026-05-04 09:05 37.66325 -125.18573 39038 ft 484 kts 137°
2026-05-04 09:06 37.61559 -125.12580 39037 ft 484 kts 137°
2026-05-04 09:08 37.42431 -124.88648 39038 ft 485 kts 138°
2026-05-04 09:08 37.37663 -124.82711 39037 ft 486 kts 139°
2026-05-04 09:09 37.32864 -124.76746 39047 ft 486 kts 139°
2026-05-04 09:09 37.28060 -124.70781 39050 ft 486 kts 139°
2026-05-04 09:10 37.23247 -124.64827 39055 ft 485 kts 139°
2026-05-04 09:10 37.18447 -124.58892 39055 ft 484 kts 139°
2026-05-04 09:11 37.13658 -124.52984 39055 ft 483 kts 139°
2026-05-04 09:11 37.08859 -124.47076 39055 ft 483 kts 139°
2026-05-04 09:12 37.04068 -124.41185 39054 ft 483 kts 140°
2026-05-04 09:14 36.84830 -124.17655 39055 ft 486 kts 141°
2026-05-04 09:14 36.79989 -124.11759 39056 ft 486 kts 141°
2026-05-04 09:15 36.75143 -124.05870 39054 ft 487 kts 141°
2026-05-04 09:15 36.70284 -123.99978 39057 ft 488 kts 141°
2026-05-04 09:17 36.48317 -123.73467 39055 ft 490 kts 143°
2026-05-04 09:18 36.43419 -123.67584 39055 ft 490 kts 143°
2026-05-04 09:18 36.38518 -123.61712 39060 ft 490 kts 143°
2026-05-04 09:19 36.33612 -123.55842 39056 ft 490 kts 143°
2026-05-04 09:19 36.28706 -123.49985 39055 ft 490 kts 143°
2026-05-04 09:20 36.23797 -123.44136 39055 ft 489 kts 143°
2026-05-04 09:20 36.18888 -123.38296 39055 ft 489 kts 143°
2026-05-04 09:21 36.13984 -123.32470 39067 ft 488 kts 143°
2026-05-04 09:21 36.09088 -123.26665 39071 ft 488 kts 143°
2026-05-04 09:22 36.04212 -123.20897 39074 ft 488 kts 143°
2026-05-04 09:22 35.99310 -123.15109 39072 ft 488 kts 143°
2026-05-04 09:23 35.94402 -123.09320 39071 ft 488 kts 145°
2026-05-04 09:23 35.89479 -123.03528 39073 ft 489 kts 146°
2026-05-04 09:25 35.69711 -122.80372 39073 ft 491 kts 146°
2026-05-04 09:26 35.64760 -122.74597 39072 ft 491 kts 146°
2026-05-04 09:26 35.59803 -122.68825 39064 ft 490 kts 146°
2026-05-04 09:27 35.54852 -122.63071 39068 ft 490 kts 146°
2026-05-04 09:27 35.49896 -122.57323 39072 ft 490 kts 146°
2026-05-04 09:28 35.44945 -122.51593 39073 ft 489 kts 147°
2026-05-04 09:28 35.39991 -122.45865 39073 ft 489 kts 147°
2026-05-04 09:29 35.35040 -122.40150 39063 ft 488 kts 147°
2026-05-04 09:29 35.30099 -122.34459 39072 ft 488 kts 147°
2026-05-04 09:30 35.25158 -122.28776 39072 ft 487 kts 147°
2026-05-04 09:30 35.20221 -122.23110 39075 ft 486 kts 148°
2026-05-04 09:31 35.15286 -122.17459 39073 ft 486 kts 148°
2026-05-04 09:31 35.10386 -122.11853 39080 ft 486 kts 148°
2026-05-04 09:32 35.05447 -122.06214 39073 ft 486 kts 149°
2026-05-04 09:34 34.86042 -121.83214 39073 ft 486 kts 149°
2026-05-04 09:34 34.81243 -121.77443 39074 ft 485 kts 149°
2026-05-04 09:35 34.76438 -121.71692 39074 ft 484 kts 150°
2026-05-04 09:35 34.71630 -121.65947 39072 ft 484 kts 150°
2026-05-04 09:37 34.52401 -121.43057 39046 ft 481 kts 151°
2026-05-04 09:38 34.50032 -121.40235 38798 ft 473 kts 151°
2026-05-04 09:38 34.47725 -121.37489 38205 ft 471 kts 151°
2026-05-04 09:38 34.45374 -121.34713 37347 ft 475 kts 151°
2026-05-04 09:38 34.42991 -121.31912 36473 ft 478 kts 151°
2026-05-04 09:39 34.40607 -121.29105 35624 ft 480 kts 151°
2026-05-04 09:39 34.38218 -121.26284 34831 ft 480 kts 151°
2026-05-04 09:39 34.35827 -121.23462 34152 ft 478 kts 151°
2026-05-04 09:39 34.33456 -121.20655 33585 ft 474 kts 151°
2026-05-04 09:40 34.31115 -121.17885 33073 ft 468 kts 150°
2026-05-04 09:40 34.28802 -121.15155 32604 ft 462 kts 150°
2026-05-04 09:40 34.26521 -121.12471 32132 ft 456 kts 150°
2026-05-04 09:40 34.24259 -121.09813 31617 ft 451 kts 150°
2026-05-04 09:41 34.22014 -121.07185 31040 ft 447 kts 150°
2026-05-04 09:42 34.15000 -120.82865 27213 ft 500 kts 89°
2026-05-04 09:43 34.15421 -120.78716 26726 ft 496 kts 89°
2026-05-04 09:43 34.15813 -120.74604 26288 ft 491 kts 90°
2026-05-04 09:43 34.16171 -120.70529 25854 ft 485 kts 90°
2026-05-04 09:43 34.16504 -120.66491 25422 ft 480 kts 90°
2026-05-04 09:44 34.16821 -120.62493 24972 ft 476 kts 90°
2026-05-04 09:44 34.17131 -120.58535 24505 ft 472 kts 90°
2026-05-04 09:44 34.17438 -120.54600 24042 ft 469 kts 90°
2026-05-04 09:46 34.19434 -120.27998 21030 ft 440 kts 92°
2026-05-04 09:46 34.19561 -120.24382 20761 ft 432 kts 93°
2026-05-04 09:46 34.19665 -120.20787 20615 ft 428 kts 94°
2026-05-04 09:47 34.19773 -120.17184 20480 ft 431 kts 93°
2026-05-04 09:47 34.19898 -120.13546 20337 ft 436 kts 92°
2026-05-04 09:49 34.19975 -119.89502 18567 ft 415 kts 97°
2026-05-04 09:49 34.19914 -119.86029 18278 ft 412 kts 97°
2026-05-04 09:49 34.19859 -119.82585 17985 ft 409 kts 97°
2026-05-04 09:51 34.19554 -119.62410 16275 ft 392 kts 96°
2026-05-04 09:51 34.19503 -119.59143 15997 ft 389 kts 96°
2026-05-04 09:51 34.19452 -119.55888 15721 ft 386 kts 96°
2026-05-04 09:51 34.19399 -119.52658 15444 ft 383 kts 96°
2026-05-04 09:52 34.19347 -119.49454 15157 ft 381 kts 95°
2026-05-04 09:52 34.19294 -119.46257 14864 ft 378 kts 95°
2026-05-04 09:52 34.19241 -119.43100 14594 ft 376 kts 95°
2026-05-04 09:52 34.19187 -119.39951 14324 ft 373 kts 95°
2026-05-04 09:53 34.19132 -119.36835 14056 ft 370 kts 95°
2026-05-04 09:53 34.19078 -119.33736 13755 ft 368 kts 95°
2026-05-04 09:53 34.19028 -119.30666 13442 ft 366 kts 95°
2026-05-04 09:53 34.18979 -119.27587 13129 ft 365 kts 95°
2026-05-04 09:54 34.18929 -119.24533 12819 ft 362 kts 95°
2026-05-04 09:54 34.18879 -119.21512 12514 ft 359 kts 94°
2026-05-04 09:54 34.18828 -119.18509 12209 ft 356 kts 94°
2026-05-04 09:54 34.18778 -119.15534 11911 ft 353 kts 94°
2026-05-04 09:55 34.18726 -119.12588 11604 ft 349 kts 94°
2026-05-04 09:55 34.18675 -119.09685 11306 ft 342 kts 94°
2026-05-04 09:55 34.18587 -119.06875 11001 ft 327 kts 100°
2026-05-04 09:55 34.17955 -119.04354 10902 ft 306 kts 118°
2026-05-04 09:56 34.17048 -119.02075 10837 ft 303 kts 119°
2026-05-04 09:56 34.16125 -118.99790 10784 ft 304 kts 119°
2026-05-04 09:56 34.15189 -118.97460 10693 ft 305 kts 118°
2026-05-04 09:56 34.14285 -118.95187 10623 ft 304 kts 118°
2026-05-04 09:57 34.13374 -118.92885 10548 ft 304 kts 118°
2026-05-04 09:57 34.12471 -118.90592 10472 ft 304 kts 118°
2026-05-04 09:57 34.11562 -118.88278 10403 ft 304 kts 118°
2026-05-04 09:57 34.10658 -118.85975 10328 ft 303 kts 118°
2026-05-04 09:58 34.09756 -118.83676 10255 ft 303 kts 118°
2026-05-04 09:58 34.08857 -118.81381 10182 ft 303 kts 117°
2026-05-04 09:58 34.07963 -118.79104 10108 ft 297 kts 118°
2026-05-04 10:00 34.02596 -118.63686 8852 ft 279 kts 96°
2026-05-04 10:00 34.02423 -118.61331 8750 ft 284 kts 95°
2026-05-04 10:02 34.01051 -118.45213 6416 ft 267 kts 86°
2026-05-04 10:04 34.03335 -118.30058 3682 ft 257 kts 84°
2026-05-04 10:04 34.03540 -118.27936 3296 ft 255 kts 83°
2026-05-04 10:04 34.03757 -118.25812 2936 ft 252 kts 83°
2026-05-04 10:04 34.03934 -118.23778 2809 ft 235 kts 91°
2026-05-04 10:05 34.03427 -118.22017 2616 ft 219 kts 132°
2026-05-04 10:05 34.02218 -118.21030 2452 ft 206 kts 162°
2026-05-04 10:05 34.00848 -118.20720 2271 ft 194 kts 182°
2026-05-04 10:05 33.99562 -118.21034 2219 ft 190 kts 206°
2026-05-04 10:06 33.98448 -118.21919 2220 ft 195 kts 223°
2026-05-04 10:06 33.97686 -118.23243 2188 ft 193 kts 250°
2026-05-04 10:06 33.97265 -118.24777 2199 ft 194 kts 251°
2026-05-04 10:08 33.95889 -118.33535 1258 ft 160 kts 263°
2026-05-04 10:08 33.95755 -118.34858 1028 ft 160 kts 263°
2026-05-04 10:08 33.95623 -118.36149 812 ft 148 kts 262°
2026-05-04 10:08 33.95502 -118.37333 617 ft 138 kts 262°
2026-05-04 10:09 33.95389 -118.38449 429 ft 133 kts 262°
2026-05-04 10:09 33.95281 -118.39545 268 ft 132 kts 262°
2026-05-04 10:09 33.95165 -118.40659 114 ft 130 kts 262°
2026-05-04 10:09 33.95064 -118.41634 111 ft 101 kts 263°
2026-05-04 10:10 33.94993 -118.42328 112 ft 66 kts 263°
2026-05-04 10:10 33.94850 -118.42681 109 ft 30 kts 225°
2026-05-04 10:10 33.94749 -118.42766 109 ft 15 kts 201°
2026-05-04 10:10 33.94635 -118.42777 106 ft 20 kts 174°
2026-05-04 10:11 33.94560 -118.42689 102 ft 17 kts 86°
2026-05-04 10:11 33.94577 -118.42541 101 ft 18 kts 85°
2026-05-04 10:11 33.94590 -118.42384 103 ft 19 kts 84°
2026-05-04 10:11 33.94606 -118.42218 101 ft 21 kts 83°
2026-05-04 10:12 33.94623 -118.42043 100 ft 22 kts 83°
2026-05-04 10:12 33.94632 -118.41857 101 ft 22 kts 85°
2026-05-04 10:12 33.94651 -118.41674 100 ft 21 kts 83°
2026-05-04 10:12 33.94669 -118.41505 100 ft 20 kts 84°
2026-05-04 10:13 33.94685 -118.41344 103 ft 14 kts 83°
2026-05-04 10:13 33.94643 -118.41281 101 ft 11 kts 158°
2026-05-04 10:13 33.94565 -118.41265 102 ft 12 kts 172°
2026-05-04 10:13 33.94478 -118.41252 101 ft 13 kts 173°
2026-05-04 10:14 33.94404 -118.41239 100 ft 7 kts 167°
2026-05-04 10:14 33.94390 -118.41194 99 ft 6 kts 86°
2026-05-04 10:16 33.94395 -118.41128 99 ft 0 kts 84°